ELY363 LLBG-LOWW

Flight info

Callsign ELY363
Flight time N/A
Altitude 32000
Route SUVAS DCT TEZAK L324 SAFTA DCT MAROS DCT LUTIG DCT EXELA UN127 LMO/N0445F340 DCT EVIVI DCT OKANA DCT ESIRI DCT DONIV DCT PARAK DCT BALUX DCT TORNO DCT NATEX NATEX2W
Aircraft B738/M-SDE2E3FGHIJ1LORVWXY/LB1

Departure

Time N/A
Airport Ben Gurion International Airport (LLBG)

Arrival

Time 2026-05-04 14:12
Airport Vienna International Airport (LOWW)
Time Latitude Longitude Altitude Speed Heading
2026-05-04 14:08 48.18853 16.33811 3499 ft 173 kts 121°
2026-05-04 14:08 48.18221 16.35377 3264 ft 174 kts 124°
2026-05-04 14:09 48.17140 16.38438 2807 ft 153 kts 121°
2026-05-04 14:09 48.16683 16.39828 2587 ft 147 kts 120°
2026-05-04 14:10 48.15788 16.42571 2213 ft 150 kts 120°
2026-05-04 14:10 48.15329 16.43975 2006 ft 149 kts 120°
2026-05-04 14:10 48.14878 16.45356 1793 ft 145 kts 121°
2026-05-04 14:10 48.14444 16.46692 1627 ft 142 kts 121°
2026-05-04 14:11 48.14012 16.48019 1395 ft 147 kts 121°
2026-05-04 14:11 48.13124 16.50765 1058 ft 143 kts 119°
2026-05-04 14:11 48.12707 16.52078 828 ft 136 kts 120°
2026-05-04 14:12 48.12291 16.53322 651 ft 133 kts 121°
2026-05-04 14:12 48.11911 16.54467 617 ft 107 kts 115°
2026-05-04 14:12 48.11503 16.55852 608 ft 49 kts 95°
2026-05-04 14:13 48.11519 16.56113 618 ft 5 kts 56°
2026-05-04 14:13 48.11520 16.56113 618 ft 0 kts 55°
2026-05-04 14:13 48.11520 16.56114 618 ft 1 kts 54°
2026-05-04 14:13 48.11537 16.56136 616 ft 7 kts 35°
2026-05-04 14:14 48.11606 16.56187 613 ft 15 kts 20°
2026-05-04 14:14 48.11758 16.55873 612 ft 19 kts 296°
2026-05-04 14:14 48.11859 16.55774 619 ft 17 kts 350°
2026-05-04 14:15 48.11896 16.55764 617 ft 1 kts 349°
2026-05-04 14:15 48.11900 16.55763 614 ft 0 kts 349°